This demonstration page uses our WeatherBlox Daily Observations layout. Learn more.

Left ArrowRight Arrow

Hourly Observations for May 5, 2018

Temp ( °F °C ) Dew Point ( °F °C ) Humidity (%) Winds ( mph kmh ) Pressure ( in mb ) Visibility ( mi km ) Precip ( " mm )
12:53 am 00:53 Clear 48 8.9 41 5 77 77 NNW 5 7 30.01 1016 10 16 0.00 0.00
1:53 am 01:53 Mostly Cloudy 48 8.9 40 4.4 74 74 SW 7 11 30.01 1016 10 16 0.00 0.00
2:53 am 02:53 Mostly Clear 49 9.4 39 3.9 69 69 WSW 10 17 30.02 1017 10 16 0.00 0.00
3:53 am 03:53 Clear 47 8.3 39 3.9 74 74 WSW 12 19 30.04 1017 10 16 0.00 0.00
4:53 am 04:53 Clear 48 8.9 38 3.3 68 68 SW 10 17 30.04 1017 10 16 0.00 0.00
5:53 am 05:53 Sunny 46 7.8 38 3.3 73 73 WSW 14 22 30.06 1018 10 16 0.00 0.00
6:53 am 06:53 Sunny 49 9.4 38 3.3 66 66 SW 14 22 30.08 1019 10 16 0.00 0.00
7:53 am 07:53 Sunny 56 13.3 40 4.4 55 55 SW 12 19 30.08 1019 10 16 0.00 0.00
8:53 am 08:53 Sunny 60 15.6 40 4.4 47 47 WSW 14 22 30.09 1019 10 16 0.00 0.00
9:53 am 09:53 Sunny 63 17.2 40 4.4 43 43 WSW 12 19 30.10 1019 10 16 0.00 0.00
10:53 am 10:53 Sunny 66 18.9 41 5 40 40 WSW 13 20 30.09 1019 10 16 0.00 0.00
11:53 am 11:53 Sunny 71 21.7 42 5.6 35 35 W 9 15 30.08 1019 10 16 0.00 0.00
12:53 pm 12:53 Sunny 74 23.3 39 3.9 28 28 NW 12 19 30.08 1019 10 16 0.00 0.00
1:53 pm 13:53 Sunny 75 23.9 34 1.1 22 22 WNW 14 22 30.06 1018 10 16 0.00 0.00
2:53 pm 14:53 Sunny 76 24.4 34 1.1 22 22 WNW 14 22 30.06 1018 10 16 0.00 0.00
3:53 pm 15:53 Sunny 76 24.4 35 1.7 23 23 NNW 7 11 30.06 1018 10 16 0.00 0.00
4:53 pm 16:53 Partly Cloudy 76 24.4 33 0.6 21 21 N 3 6 30.05 1018 10 16 0.00 0.00
5:53 pm 17:53 Mostly Sunny 75 23.9 36 2.2 24 24 VRB 5 7 30.05 1018 10 16 0.00 0.00
6:53 pm 18:53 Cloudy 68 20 40 4.4 36 36 WSW 18 30 30.07 1018 10 16 0.00 0.00
7:14 pm 19:14 Cloudy with Light Rain 66 19 43 6 43 43 SE 9 15 30.00 1016 10 16 0.00 0.00
7:53 pm 19:53 Mostly Sunny 68 20 46 7.8 45 45 Calm 30.07 1018 10 16 0.00 0.03
8:53 pm 20:53 Partly Cloudy 60 15.6 48 8.9 65 65 SE 6 9 30.08 1019 10 16 0.00 0.00
9:53 pm 21:53 Clear 56 13.3 45 7.2 67 67 S 5 7 30.09 1019 10 16 0.00 0.00
10:53 pm 22:53 Clear 56 13.3 43 6.1 62 62 N 3 6 30.10 1019 10 16 0.00 0.00
11:53 pm 23:53 Mostly Clear 55 12.8 42 5.6 62 62 Calm 30.09 1019 10 16 0.00 0.00

Powered by AerisWeather